www.pogodaiklimat.ru

Погода и климат >> Архив погоды >> Норвегия >> Стрын-Крокен


ПОГОДА в Стрын-Крокене

  • Прогноз погоды в Стрын-Крокене
  • Монитор погоды в Стрын-Крокене

АРХИВ ПОГОДЫ в Стрын-Крокене

Время (UTC), дата Ветер
(напр.,м/с)
 
Видим.   Явления Облачность Т
(С)
Тd
(С)
f
(%)
Тe
(С)
Тes
(С)
Комфортность P
(гПа)
Po
(гПа)
Тmin
(С)
Tmax
(С)
R
(мм)
R24
(мм)
S
(см)
10 15.05 ЮВ 2
{4}
н/о н/о +15.6 +1.7 39 +16 +16 1029.9 1005.1
11 15.05 ЮВ 2
{5}
н/о н/о +16.2 +2.3 39 +16 +16 1029.6 1004.8
12 15.05 ЮВ 1
{5}
н/о н/о +18.3 +2.2 34 +20 +20 1029.2 1004.6
13 15.05 Ю 1
{4}
н/о н/о +18.7 +1.3 31 +20 +20 1029.0 1004.5
14 15.05 Ю 2
{5}
н/о н/о +18.1 +1.2 32 +19 +19 1028.9 1004.3
15 15.05 ЮВ 1
{6}
н/о н/о +16.2 +0.8 35 +17 +17 1029.1 1004.3
16 15.05 Ю 1
{5}
н/о н/о +17.5 +0.2 31 +19 +19 1028.8 1004.1 0.1
17 15.05 СЗ 1
{3}
н/о н/о +16.6 +3.0 40 +18 +18 1028.7 1004.0
18 15.05 СЗ 1
{6}
н/о н/о +14.8 +4.8 51 +15 +15 1029.0 1004.1 +9.3 +18.9
19 15.05 СЗ 2
{3}
н/о н/о +14.5 +5.1 53 +14 +14 1029.2 1004.3
20 15.05 ЮЗ 1
{2}
н/о н/о +10.8 +5.2 68 +11 +11 1029.9 1004.7
21 15.05 Ю 1
{2}
н/о н/о +8.6 +4.2 74 +8 +8 1030.4 1004.9
22 15.05 ЮВ 1
{2}
н/о н/о +7.0 +3.8 80 +6 +6 1030.7 1005.1
23 15.05 Ю 1
{2}
н/о н/о +6.3 +3.3 81 +5 +5 1031.0 1005.3
00 16.05 ЮВ 1
{3}
н/о н/о +5.3 +2.5 82 +4 +4 1031.4 1005.6
01 16.05 ЮВ 1
{2}
н/о н/о +4.9 +3.3 89 +4 +4 1031.3 1005.5
02 16.05 ЮВ 1
{2}
н/о н/о +4.3 +2.0 85 +3 +3 1031.5 1005.6
03 16.05 ЮВ 1
{2}
н/о н/о +4.2 +2.4 88 +3 +3 1031.3 1005.4
04 16.05 Ю 1
{2}
н/о н/о +4.5 +2.4 86 +3 +3 1031.0 1005.2
05 16.05 ЮВ 1
{2}
н/о н/о +7.4 +4.2 80 +7 +7 1031.1 1005.5
06 16.05 штиль 0
{2}
н/о н/о +12.9 +4.6 57 +13 +13 1030.5 1005.4 +4.0 +15.2
07 16.05 С 1
{2}
н/о н/о +14.5 +2.1 43 +15 +15 1030.2 1005.3
08 16.05 В 1
{2}
н/о н/о +16.8 +1.3 35 +18 +18 1030.1 1005.3
09 16.05 ЮВ 1
{3}
н/о н/о +18.0 +2.4 35 +19 +19 1029.6 1005.0
10 16.05 Ю 1
{3}
н/о н/о +18.6 +0.7 30 +20 +20 1029.1 1004.5
11 16.05 Ю 2
{4}
н/о н/о +19.3 +0.4 28 +20 +20 1028.6 1004.1
12 16.05 ЮВ 2
{4}
н/о н/о +19.6 +0.1 27 +20 +20 1028.4 1003.9
13 16.05 ЮВ 2
{5}
н/о н/о +20.0 +1.0 28 +21 +21 комфорт 1028.0 1003.6
14 16.05 ЮВ 2
{5}
н/о н/о +19.4 0.0 27 +20 +20 1027.7 1003.2
15 16.05 ЮВ 2
{5}
н/о н/о +18.9 -1.0 26 +20 +20 1027.3 1002.8
16 16.05 ЮВ 3
{5}
н/о н/о +18.7 -0.6 27 +19 +19 1027.0 1002.5
17 16.05 В 2
{5}
н/о н/о +19.0 -0.4 27 +20 +20 1026.6 1002.1
18 16.05 В 2
{5}
н/о н/о +18.1 -0.6 28 +19 +19 1026.4 1001.8 +12.9 +20.2
19 16.05 В 1
{6}
н/о н/о +17.0 +0.2 32 +18 +18 1026.3 1001.7
20 16.05 Ю 1
{3}
н/о н/о +13.3 +2.3 47 +14 +14 1026.8 1001.8 0.1
21 16.05 Ю 1
{3}
н/о н/о +10.7 +2.1 55 +11 +11 1027.0 1001.8
22 16.05 Ю 1
{2}
н/о н/о +9.3 +2.0 60 +9 +9 1027.1 1001.8
23 16.05 Ю 1
{1}
н/о н/о +8.0 +2.3 67 +7 +7 1027.2 1001.8
00 17.05 Ю 1
{6}
н/о н/о +7.2 +2.3 71 +7 +7 1027.1 1001.6
01 17.05 Ю 1
{2}
н/о н/о +6.7 +2.2 73 +6 +6 1027.1 1001.6
02 17.05 ЮВ 1
{2}
н/о н/о +6.4 +2.5 76 +6 +6 1026.9 1001.3
03 17.05 ЮВ 1
{2}
н/о н/о +6.0 +2.8 80 +5 +5 1026.8 1001.2
04 17.05 Ю 1
{2}
н/о н/о +6.7 +3.0 77 +6 +6 1026.5 1001.0
05 17.05 ЮВ 1
{2}
н/о н/о +10.5 +3.3 61 +10 +10 1025.9 1000.7
06 17.05 штиль 0
{2}
н/о н/о +13.4 +4.3 54 +13 +13 1025.3 1000.4 +5.8 +18.1 0.1
07 17.05 СВ 1
{2}
н/о н/о +16.7 +4.1 43 +18 +18 1024.7 1000.1
08 17.05 СВ 1
{2}
н/о н/о +19.2 +1.7 31 +21 +21 комфорт 1024.1 999.7
09 17.05 ЮВ 1
{3}
н/о н/о +21.1 +2.4 29 +21 +21 комфорт 1023.5 999.3
10 17.05 ЮВ 2
{4}
н/о н/о +20.9 +2.2 29 +22 +22 комфорт 1022.9 998.7
11 17.05 ЮВ 2
{5}
н/о н/о +21.4 +1.7 27 +21 +21 комфорт 1022.5 998.3
12 17.05 Ю 2
{5}
н/о н/о +21.6 +1.3 26 +21 +21 комфорт 1022.2 998.0
13 17.05 ЮВ 2
{6}
н/о н/о +21.9 +1.6 26 +22 +22 комфорт 1021.5 997.4 0.1
14 17.05 Ю 2
{6}
н/о н/о +21.6 +1.3 26 +21 +21 комфорт 1021.3 997.1
15 17.05 ЮВ 2
{6}
н/о н/о +21.1 +0.4 25 +21 +21 комфорт 1020.8 996.6
16 17.05 ЮВ 2
{5}
н/о н/о +20.3 +1.2 28 +21 +21 комфорт 1020.2 996.0
17 17.05 В 2
{5}
н/о н/о +21.0 +1.3 27 +22 +22 комфорт 1019.3 995.2
18 17.05 В 2
{6}
н/о н/о +19.0 +1.5 31 +20 +20 1019.3 995.0 +13.4 +22.3 0.1
19 17.05 ЮВ 1
{4}
н/о н/о +17.8 +1.8 34 +19 +19 1019.1 994.7
20 17.05 З 1
{3}
н/о н/о +15.2 +2.1 41 +16 +16 1019.0 994.4
21 17.05 Ю 1
{2}
н/о н/о +12.8 +3.2 52 +13 +13 1018.9 994.1
22 17.05 ЮВ 1
{3}
н/о н/о +12.4 +2.3 50 +13 +13 1018.8 994.0
23 17.05 ЮВ 1
{2}
н/о н/о +9.9 +3.0 62 +10 +10 1018.6 993.6
00 18.05 ЮВ 1
{4}
н/о н/о +9.2 +3.0 65 +9 +9 1018.2 993.1
01 18.05 В 1
{2}
н/о н/о +8.6 +3.1 68 +8 +8 1018.1 992.9
02 18.05 ЮВ 1
{2}
н/о н/о +7.9 +3.4 73 +7 +7 1017.6 992.4
03 18.05 ЮЗ 1
{2}
н/о н/о +9.3 +3.9 69 +9 +9 1016.9 991.8
04 18.05 ЮВ 1
{2}
н/о н/о +10.2 +4.2 66 +10 +10 1016.1 991.1
05 18.05 З 1
{2}
н/о н/о +11.9 +5.3 64 +12 +12 1015.4 990.6
06 18.05 Ю 1
{3}
н/о н/о +13.5 +4.1 53 +14 +14 1015.1 990.4 +7.9 +19.0
07 18.05 штиль 0
{3}
н/о н/о +15.6 +3.7 45 +16 +16 1014.4 989.9
08 18.05 СВ 1
{5}
н/о н/о +17.4 +0.6 32 +18 +18 1013.8 989.5
09 18.05 В 3
{10}
н/о н/о +17.9 -0.3 29 +18 +18 1013.3 989.1
10 18.05 ЮВ 2
{10}
н/о н/о +17.9 +1.9 34 +18 +18 1013.3 989.0
11 18.05 ЮЗ 2
{6}
н/о н/о +12.7 +7.8 72 +12 +12 1014.2 989.5 0.6
12 18.05 СВ 1
{10}
н/о н/о +19.3 +6.8 44 +21 +21 комфорт 1012.8 988.7 0.3
13 18.05 Ю 3
{7}
н/о н/о +20.0 +5.3 38 +21 +21 комфорт 1012.7 988.6
14 18.05 В 2
{7}
н/о н/о +19.2 +4.6 38 +20 +20 1012.6 988.5
15 18.05 ЮВ 3
{9}
н/о н/о +19.7 +5.0 38 +21 +21 комфорт 1012.3 988.2
16 18.05 В 3
{10}
н/о н/о +18.3 +4.5 40 +19 +19 1012.8 988.6
17 18.05 В 2
{7}
н/о н/о +17.9 +4.8 42 +18 +18 1013.0 988.8
18 18.05 В 3
{10}
н/о н/о +17.0 +4.7 44 +17 +17 1013.0 988.7 +12.1 +20.8 0.9
19 18.05 В 4
{9}
н/о н/о +16.3 +5.0 47 +16 +16 1013.3 988.9
20 18.05 ЮВ 3
{9}
н/о н/о +15.8 +4.8 48 +15 +15 1013.6 989.2
21 18.05 ЮВ 2
{9}
н/о н/о +15.4 +4.8 49 +15 +15 1014.0 989.5
22 18.05 З 1
{7}
н/о н/о +13.7 +5.1 56 +14 +14 1014.2 989.6
23 18.05 СЗ 2
{3}
н/о н/о +11.2 +6.2 71 +10 +10 1014.3 989.5
00 19.05 З 1
{9}
н/о н/о +9.1 +5.1 76 +9 +9 1014.4 989.4
01 19.05 Ю 1
{2}
н/о н/о +8.3 +5.1 80 +8 +8 1014.2 989.1
02 19.05 З 1
{2}
н/о н/о +7.4 +5.1 85 +7 +7 1014.2 989.0
03 19.05 штиль 0
{2}
н/о н/о +7.3 +5.3 87 +6 +6 1013.9 988.7
04 19.05 Ю 1
{1}
н/о н/о +7.8 +6.6 92 +7 +7 1013.3 988.2
05 19.05 ЮЗ 1
{3}
н/о н/о +10.7 +6.5 75 +10 +10 1012.9 988.0
06 19.05 СЗ 1
{3}
н/о н/о +13.3 +6.7 64 +14 +14 1012.3 987.7 +6.9 +17.0 0.1
07 19.05 В 1
{2}
н/о н/о +15.5 +6.0 53 +16 +16 1011.8 987.4
08 19.05 С 1
{2}
н/о н/о +16.0 +7.5 57 +17 +17 1011.7 987.3
09 19.05 ЮВ 1
{2}
н/о н/о +18.2 +6.1 45 +19 +19 1011.2 987.0
10 19.05 СВ 1
{4}
н/о н/о +19.7 +5.4 39 +21 +21 комфорт 1010.7 986.6
11 19.05 ЮВ 2
{4}
н/о н/о +21.0 +6.2 38 +23 +23 комфорт 1010.2 986.3
12 19.05 ЮВ 3
{5}
н/о н/о +20.0 +5.7 39 +21 +21 комфорт 1010.3 986.3
13 19.05 ЮВ 2
{6}
н/о н/о +20.6 +5.4 37 +22 +22 комфорт 1010.3 986.3
14 19.05 СЗ 1
{4}
н/о н/о +19.4 +6.9 44 +21 +21 комфорт 1010.7 986.6
15 19.05 С 3
{5}
н/о н/о +19.3 +7.7 47 +20 +20 1010.7 986.6
16 19.05 С 3
{6}
н/о н/о +19.4 +7.2 45 +20 +20 1010.9 986.8
17 19.05 СЗ 2
{6}
н/о н/о +18.4 +7.2 48 +19 +19 1011.3 987.1
18 19.05 СЗ 1
{6}
н/о н/о +17.1 +7.2 52 +18 +18 1011.9 987.6 +13.3 +21.6
19 19.05 ЮВ 1
{3}
н/о н/о +16.0 +9.9 67 +17 +17 1012.5 988.1
20 19.05 Ю 1
{3}
н/о н/о +14.9 +9.7 71 +15 +15 1012.9 988.4
21 19.05 ЮВ 1
{2}
н/о н/о +11.8 +8.3 79 +12 +12 1013.6 988.8
22 19.05 Ю 1
{2}
н/о н/о +11.0 +8.4 84 +11 +11 1013.9 989.1
23 19.05 Ю 1
{2}
н/о н/о +9.7 +7.5 86 +9 +9 1014.1 989.1
00 20.05 Ю 1
{3}
н/о н/о +9.3 +7.9 91 +9 +9 1014.2 989.2
01 20.05 ЮВ 1
{2}
н/о н/о +8.5 +7.4 93 +8 +8 1014.2 989.1
02 20.05 Ю 1
{2}
н/о н/о +8.1 +7.2 94 +7 +7 1014.2 989.1
03 20.05 ЮВ 1
{2}
н/о н/о +7.8 +7.1 95 +7 +7 1014.2 989.1
04 20.05 ЮВ 1
{2}
н/о н/о +8.1 +7.4 95 +7 +7 1014.2 989.1
05 20.05 В 1
{1}
н/о н/о +11.7 +9.3 85 +12 +12 1013.7 988.9
06 20.05 СВ 1
{2}
н/о н/о +14.8 +9.6 71 +15 +15 1013.3 988.8 +7.5 +17.2
07 20.05 С 1
{2}
н/о н/о +17.2 +8.1 55 +18 +18 1013.2 988.9
08 20.05 СВ 1
{3}
н/о н/о +19.5 +6.6 43 +21 +21 комфорт 1013.0 988.9
09 20.05 С 1
{3}
н/о н/о +20.9 +5.3 36 +23 +23 комфорт 1012.5 988.5
10 20.05 СЗ 2
{3}
н/о н/о +22.0 +5.4 34 +22 +22 комфорт 1012.2 988.3
11 20.05 СВ 1
{3}
н/о н/о +22.6 +5.5 33 +23 +23 комфорт 1011.8 988.0
12 20.05 В 2
{5}
н/о н/о +23.2 +3.7 28 +23 +23 комфорт 1011.5 987.7
13 20.05 ЮВ 2
{6}
н/о н/о +22.0 +3.7 30 +22 +22 комфорт 1011.4 987.5
14 20.05 В 2
{6}
н/о н/о +22.7 +2.3 26 +22 +22 комфорт 1011.1 987.3
15 20.05 ЮВ 2
{6}
н/о н/о +22.3 +3.4 29 +22 +22 комфорт 1010.7 986.9
16 20.05 В 2
{5}
н/о н/о +22.3 +3.0 28 +22 +22 комфорт 1010.5 986.7
17 20.05 СВ 1
{4}
н/о н/о +21.8 +3.5 30 +22 +22 комфорт 1010.4 986.5
18 20.05 З 2
{6}
н/о н/о +20.8 +4.4 34 +22 +22 комфорт 1010.7 986.7 +14.8 +23.7
19 20.05 СЗ 1
{4}
н/о н/о +18.7 +5.9 43 +20 +20 1011.0 986.9
20 20.05 С 1
{4}
н/о н/о +17.2 +7.3 52 +18 +18 1011.5 987.3
21 20.05 штиль 0
{1}
н/о н/о +15.7 +7.5 58 +16 +16 1012.0 987.6
22 20.05 ЮВ 1
{3}
н/о н/о +15.9 +5.8 51 +17 +17 1012.2 987.8
23 20.05 Ю 1
{4}
н/о н/о +15.2 +6.8 57 +16 +16 1012.6 988.1 0.2
00 21.05 ЮЗ 1
{4}
н/о н/о +12.5 +9.9 84 +13 +13 1012.7 988.0 0.1
01 21.05 штиль 0
{2}
н/о н/о +12.4 +9.2 81 +12 +12 1012.4 987.7
02 21.05 штиль 0
{1}
н/о н/о +12.1 +8.8 80 +12 +12 1012.2 987.5
03 21.05 ЮВ 1
{1}
н/о н/о +12.1 +8.8 80 +12 +12 1012.1 987.4
04 21.05 В 1
{2}
н/о н/о +12.5 +8.8 78 +13 +13 1012.0 987.3
05 21.05 штиль 0
{1}
н/о н/о +13.1 +9.7 80 +13 +13 1011.7 987.1
06 21.05 штиль 0
{2}
н/о н/о +15.3 +9.2 67 +15 +15 1011.4 987.0 +11.9 +20.8 0.3
07 21.05 В 1
{2}
н/о н/о +18.0 +8.3 53 +19 +19 1011.1 986.9 0.2
08 21.05 ЮВ 1
{2}
н/о н/о +18.2 +7.9 51 +19 +19 1011.3 987.1
09 21.05 н/о
10 21.05 ЮВ 1
{3}
н/о н/о +20.1 +7.8 45 +22 +22 комфорт 1011.1 987.1
11 21.05 ЮВ 2
{4}
н/о н/о +21.0 +7.6 42 +23 +23 комфорт 1010.7 986.8
12 21.05 ЮВ 2
{4}
н/о н/о +22.3 +8.1 40 +23 +23 комфорт 1010.4 986.6
13 21.05 ЮВ 2
{4}
н/о н/о +22.7 +6.9 36 +23 +23 комфорт 1010.2 986.4
14 21.05 ЮВ 2
{5}
н/о н/о +23.3 +5.7 32 +24 +24 комфорт 1010.0 986.3
15 21.05 Ю 2
{5}
н/о н/о +22.5 +6.7 36 +23 +23 комфорт 1009.9 986.1
16 21.05 ЮВ 2
{6}
н/о н/о +21.8 +6.9 38 +23 +23 комфорт 1009.8 985.9
17 21.05 Ю 1
{5}
н/о н/о +20.8 +7.4 42 +23 +23 комфорт 1009.8 985.9
18 21.05 Ю 1
{6}
н/о н/о +20.7 +7.7 43 +23 +23 комфорт 1009.6 985.7 +15.3 +23.7 0.2
19 21.05 Ю 1
{5}
н/о н/о +18.1 +7.2 49 +19 +19 1010.2 986.0
20 21.05 СЗ 1
{3}
н/о н/о +17.5 +7.3 51 +19 +19 1010.1 985.9
21 21.05 Ю 1
{2}
н/о н/о +15.1 +7.2 59 +16 +16 1010.3 985.9
22 21.05 ЮВ 1
{2}
н/о н/о +13.9 +7.2 64 +14 +14 1010.3 985.8
23 21.05 Ю 1
{2}
н/о н/о +13.1 +7.1 67 +13 +13 1010.1 985.5
00 22.05 ЮВ 1
{5}
н/о н/о +11.7 +7.0 73 +12 +12 1009.7 985.0
01 22.05 Ю 1
{2}
н/о н/о +11.7 +6.8 72 +12 +12 1009.3 984.6
02 22.05 ЮВ 1
{2}
н/о н/о +12.3 +7.4 72 +12 +12 1008.9 984.3
03 22.05 Ю 1
{1}
н/о н/о +11.7 +9.3 85 +12 +12 1008.7 984.0 0.1
04 22.05 Ю 1
{2}
н/о н/о +11.7 +10.8 94 +11 +11 1008.7 984.0 1
05 22.05 Ю 1
{2}
н/о н/о +12.0 +11.2 95 +12 +12 1008.3 983.7 0.6
06 22.05 штиль 0
{2}
н/о н/о +12.4 +11.6 95 +12 +12 1007.8 983.2 +11.3 +20.8 2
07 22.05 С 1
{1}
н/о н/о +12.9 +12.1 95 +13 +13 1007.5 983.0
08 22.05 штиль 0
{1}
н/о н/о +13.7 +12.9 95 +13 +13 1007.5 983.0 0.9
09 22.05 штиль 0
{2}
н/о н/о +14.3 +13.4 94 +14 +14 1007.3 982.9 0.1
10 22.05 ЮВ 1
{2}
н/о н/о +14.7 +13.4 92 +15 +15 1007.0 982.6

 

Местоположение метеостанции Стрын-Крокен (Норвегия): широта 61.92 долгота 6.56 высота над уровнем моря 208 м.

В архиве по умолчанию представлена погода в Стрын-Крокене за последнюю неделю. Архивные данные за месяц целиком и за предыдущие месяцы, начиная с января 2011 года, Вы можете получить, выбрав интересующий диапазон дат из раскрывающегося списка и нажав кнопку "Ввод!".


*Определитесь, кто Вы:
робот инопланетянин человек

Внимание! Время в таблицах - всемирное. Для получения местного времени необходимо прибавить поправку, которая равна 1 ч.

Смотрите также архив погоды в соседних городах и на ближайших метеорологических станциях:

Погода в Сандан аэропорту (Норвегия) (26 км)
Погода в Аэропорту Орста-Волда (Норвегия) (38 км)
Погода в Фиске (Норвегия) (55 км)
Погода в Тафьорде (Норвегия) (57 км)
Погода во Фьерлэнде (Норвегия) (57 км)
Погода в Гротли (Норвегия) (59 км)
Погода во Флурё (Норвегия) (60 км)
Погода в Олесунне (Норвегия) (64 км)
Погода в Брате (Норвегия) (69 км)
Погода в Лебергсфелле (Норвегия) (69 км)

Пояснения к столбцам:

Ветер - указаны скорость ветра в м/с - средняя за 10 мин, порывы в срок и между сроками (в фигурных скобках) и направление, откуда дует ветер: С - северный, СВ - северо-восточный, В - восточный, ЮВ - юго-восточный, Ю - южный, ЮЗ - юго-западный, З - западный, СЗ - северо-западный.
Видимость - горизонтальная дальность видимости в метрах или километрах. При видимости от 1 до 10 км при отсутствии осадков обычно наблюдается дымка, при ухудшении видимости до 1 км и менее - туман. В сухую погоду видимость может ухудшаться дымом, пылью или мглою.
Явления - указаны атмосферные явления, наблюдавшиеся в срок или в последний час перед сроком; фигурными скобками обозначены явления, наблюдавшиеся между сроками (за 1-3 часа до срока); квадратными скобками обозначены град или гололедные отложения с указанием их диаметра в мм.
Облачность - указаны через наклонную черту общая и нижняя облачность в баллах и высота нижней границы облаков в метрах; квадратными скобками обозначены формы облаков: Ci - перистые, Cs - перисто-слоистые, Cc - перисто-кучевые, Ac - высококучевые, As - высокослоистые, Sc - слоисто-кучевые, Ns - слоисто-дождевые, Cu - кучевые, Cb - кучево-дождевые. Подробнее классификацию облаков см. в Атласе облаков (PDF).
T - Температура воздуха - температура, измеренная на высоте 2 м над землей.
Td - Температура точки росы - температура, при понижении до которой содержащийся в воздухе водяной пар достигнет насыщения.
f - Относительная влажность воздуха - влажноcть воздуха, измеренная на высоте 2 м над землей.
Te - Эффективная температура - температура, которую ощущает одетый по сезону человек в тени. Характеристика душности погоды. При расчете учитывается влияние влажности воздуха и скорости ветра на теплоощущения человека.
Tes - Эффективная температура на солнце - температура, которую ощущает человек, с поправкой на солнечный нагрев. Характеристика знойности погоды. Зависит от высоты солнца над горизонтом, облачности и скорости ветра. Ночью, в пасмурную погоду, а также при ветре 12 м/с и более поправка равна нулю.
P - Атмосферное давление - приведенное к уровню моря атмосферное давление.
Po - Атмосферное давление - измеренное на уровне метеостанции атмосферное давление.
Tmin - Минимальная температура - минимум температуры воздуха на высоте 2 м над землей.
Tmax - Максимальная температура - максимум температуры воздуха на высоте 2 м над землей.
R - Количество осадков - Количество выпавших осадков за период времени, мм. При наведении курсора мыши на число - период времени, за который выпало указанное количество осадков.
R24 - Количество осадков - Количество выпавших осадков за 24 часа, мм.
S - Снежный покров - Высота снежного покрова, см. При наведении курсора мыши на число - состояние снежного покрова и степень покрытия местности в баллах.